Home   Weather   Thane   Past weeks

Flag for India Past Weather in Thane, Maharashtra, India — Yesterday and Last 2 Weeks

Now
77 °F

Haze.


Feels Like: 79 °F
Forecast: 70 / 91 °F
Wind: 7 mph from Northwest

Location: Mumbai / Santacruz

Current Time: Feb 21, 2017 at 8:15:02 pm

Latest Report: Feb 21, 2017 at 7:30 pm


Visibility: 2 mi

Pressure: 29.86 "Hg

Humidity: 74%

Dew Point: 68 °F

Location of ThaneLocation

Past Weather in Thane — Graph

°F

Thane Temperature Yesterday

Maximum temperature yesterday: 95 °F (at 2:30 pm)
Minimum temperature yesterday: 79 °F (at 5:00 am)
Average temperature yesterday: 85 °F

High & Low Weather Summary for the Past Weeks

 TemperatureHumidityPressure
High104 °F (Feb 18, 2:30 pm)89% (Feb 21, 6:30 am)30.09 "Hg (Feb 21, 6:30 am)
Low68 °F (Feb 7, 4:00 am)15% (Feb 18, 2:30 pm)29.77 "Hg (Feb 10, 3:30 pm)
Average83 °F46%29.93 "Hg
* Reported Feb 6 6:30 pm — Feb 21 7:00 pm, Thane, Weather by CustomWeather, © 2017

Note: Actual official high and low records may vary slightly from our data, if they occured in-between our weather recording intervals... More about our weather records

Advertising

Thane Weather History for the Previous 24 Hours

Scroll right to see more
 ConditionsComfort  
Time TempWeatherWind HumidityBarometerVisibility
7:00 pm
Tue, Feb 21
79 °FHaze.9 mph70%29.83 "Hg2 mi
6:30 pm79 °FClear.8 mph65%29.83 "Hg3 mi
6:00 pm81 °FClear.8 mph58%29.80 "Hg3 mi
5:30 pm81 °FClear.9 mph58%29.80 "Hg3 mi
5:00 pm82 °FHaze.14 mph62%29.80 "Hg3 mi
4:30 pm82 °FHaze.15 mph62%29.80 "Hg3 mi
4:00 pm84 °FHaze.13 mph62%29.80 "Hg3 mi
3:30 pm84 °FHaze.14 mph66%29.80 "Hg3 mi
3:00 pm84 °FHaze.12 mph62%29.83 "Hg3 mi
2:30 pm84 °FHaze.10 mph62%29.83 "Hg3 mi
2:00 pm84 °FHaze.14 mph66%29.86 "Hg3 mi
1:30 pm84 °FHaze.13 mph70%29.86 "Hg3 mi
1:00 pm84 °FHaze.10 mph70%29.89 "Hg3 mi
12:30 pm86 °FHaze.9 mph66%29.89 "Hg3 mi
12:00 pm86 °FScattered clouds.10 mph70%29.92 "Hg3 mi
11:30 am84 °FScattered clouds.8 mph70%29.92 "Hg3 mi
11:00 am84 °FScattered clouds.7 mph70%29.92 "Hg3 mi
10:30 am84 °FScattered clouds.8 mph70%29.92 "Hg3 mi
10:00 am82 °FScattered clouds.7 mph74%29.92 "Hg3 mi
9:30 am81 °FScattered clouds.8 mph79%29.92 "Hg3 mi
9:00 am79 °FScattered clouds.3 mph74%29.89 "Hg2 mi
8:30 am77 °FScattered clouds.3 mph79%29.89 "Hg2 mi
8:00 am77 °FScattered clouds.5 mph79%29.89 "Hg2 mi
7:30 am77 °FFog.No wind79%29.86 "Hg2 mi
7:00 am75 °FFog.No wind89%29.86 "Hg2 mi
6:30 am75 °FFog.No wind89%29.83 "Hg2 mi
6:00 am77 °FFog.No wind83%29.83 "Hg2 mi
5:30 am77 °FFog.No wind83%29.83 "Hg2 mi
5:00 am77 °FFog.5 mph83%29.83 "Hg2 mi
4:30 am77 °FFog.5 mph83%29.83 "Hg2 mi
4:00 am77 °FFog.6 mph83%29.83 "Hg2 mi
3:30 am77 °FFog.5 mph83%29.80 "Hg2 mi
3:00 am77 °FFog.6 mph83%29.83 "Hg2 mi
2:30 am77 °FFog.6 mph83%29.83 "Hg2 mi
2:00 am77 °FFog.7 mph83%29.83 "Hg2 mi
1:30 am79 °FFog.7 mph79%29.83 "Hg2 mi
1:00 am77 °FHaze.5 mph79%29.83 "Hg2 mi
12:30 am79 °FHaze.5 mph70%29.83 "Hg2 mi
12:00 am77 °FHaze.No wind79%29.86 "Hg2 mi
11:30 pm
Mon, Feb 20
79 °FHaze.3 mph74%29.86 "Hg2 mi
11:00 pm79 °FHaze.8 mph74%29.86 "Hg2 mi
10:30 pm79 °FHaze.6 mph74%29.86 "Hg2 mi
10:00 pm81 °FHaze.9 mph70%29.86 "Hg2 mi
9:30 pm81 °FHaze.8 mph66%29.86 "Hg2 mi
9:00 pm82 °FClear.8 mph58%29.86 "Hg2 mi
8:30 pm84 °FClear.5 mph45%29.86 "Hg2 mi
8:00 pm84 °FClear.6 mph35%29.83 "Hg2 mi
Weather by CustomWeather, © 2017

See weather overviewHow to use our weather pages